Location: Newark
(50.6167°N, 5.6500°E)
Time: 11:18:05
(UTC+00:00)

OTV 5 (USA 277) - Visible Passes

Search period start: 17 October 2019 00:00
Search period end: 27 October 2019 00:00
Orbit: 310 x 324 km, 54.5° (Epoch: 08 October)

Date Brightness Start Highest point End Pass type
(mag) Time Alt. Az. Time Alt. Az. Time Alt. Az.
17 Oct ? 04:21:38 71° WNW 04:21:52 86° SSW 04:24:37 10° ESE visible
18 Oct ? 04:36:01 39° WSW 04:36:22 41° SSW 04:38:59 10° SE visible
19 Oct ? 04:50:31 20° SW 04:50:46 20° SW 04:52:53 10° S visible
